ATLAS 5 CENTAUR DEB, 43960

Orbit data source: Space-Track

ATLAS 5 CENTAUR DEB, 43960 is space debris in HEO originally from a launch on Wed, 17 Sep 2014 UTC launched from the Air Force Eastern Test Range (AFETR). Debris objects in space refer to the collection of defunct objects orbiting the Earth. Examples of debris include non-operational satellites, rocket bodies, and fragments generated from explosions, collisions, or faulty payload assembly.

Loading next visibility...
Identifier
43960, 2014-055P
Orbit
HEO
Last TLE update
3 days ago
Origin
Flag of USUnited Launch Alliance/Lockheed Martin (US)
Manufacturer
Unknown
Mission
Spacecraft
Bus & Motor
Unknown
Mass
Unknown
Launch date (UTC)
2014-09-17 (11 years ago)
Launch vehicle
Unknown
Launch site
Air Force Eastern Test Range (AFETR)
Object type
Payload
Rocket body
Debris
Shape & HBR
Unknown
Radar Cross Section
Small (<0.1 m²)

Expand to show TLE details & history

TLE from 3 days ago
0 ATLAS 5 CENTAUR DEB
1 43960U 14055P   25189.77437322 -.00000042  00000-0  00000-0 0  9994
2 43960  19.4674 172.3018 5127609 113.0813 307.8225  1.81607010 45408
Epoch: 2025-07-08T18:35Z
TLE epoch observation values (Epoch: 2025-07-08T18:35:05.846Z)
Latitude
-0.00002°
Longitude
-33.47371°
Altitude
19,776.64 km
Speed
4.054 km/s
True Right ascension
11h 29m 03s
True Declination
0° 00' 00"
Sunlit
Object was in daylight at epoch
Visualization orbit readout
Latitude
-7.59672°
Longitude
-55.93387°
Altitude
27,071.837 km
Speed
3.128 km/s
Apparent Right ascension
10h 13m 09s
Apparent Declination
-12° 43' 59"
Sunlit
Object is in daylight
Visualization observer readout
Local Sidereal Time
23:50:21
Azimuth
45.001° ENE
Elevation
-55.413°
Doppler factor
1
Orbital elements
Apogee altitude
36,553.944 km
Perigee altitude
7,449.685 km
Semi-major axis
28,379.952 km
Eccentricity
0.51276
Inclination
19.4674°
RAAN
172.3018°
Arg. of periapsis
113.0813°
True anomaly
Unknown
Mean anomaly
307.8225°
Eccentric anomaly
Unknown
Mean motion
0.45397 °/min
Orbital period
793.01 mins
BSTAR
0
Loading maneuver chart data...
Loading SW <> Apogee altitude chart data...

ATLAS 5 CENTAUR DEB Visibility forecast

Observer location: undefined°, undefined°

Span
Click to sort rows by Start time (UTC) header in descending order
Start Az.
Max El. time (UTC)
Max El. Az.
Max El.
End time (UTC)
End Az.
712 mins2025-07-11 16:02:18.464Z227.759° WSW2025-07-12 03:16:18.464Z173.272° S38.848°2025-07-12 03:54:18.464Z100.621° ESE
|